Location: Newark
(45.8667°N, 9.7333°E)
Time: 18:04:55
(UTC+00:00)

A-11 Canister half - Pass Details

Date: 28 January 2020
Orbit: 1517 x 1683 km, 47.2° (Epoch: 22 February)

Event Time Altitude Azimuth Distance (km) Brightness Sun altitude
Rises 23:14:05 0° 249° (WSW) 4,747 - -62.0°
Reaches altitude 10° 23:17:10 10° 249° (WSW) 3,744 - -62.1°
Maximum altitude 23:26:38 86° 163° (SSE) 1,537 - -62.2°
Drops below altitude 10° 23:35:55 10° 76° (ENE) 3,681 - -62.3°
Sets 23:38:56 0° 76° (ENE) 4,664 - -62.2°
